Location: Tr�vern
(48.0333°N, 4.6000°W)
Time: 07:25:52
(UTC+00:00)

CZ-2D R/B - Pass Details

Date: 14 July 2020
Orbit: 792 x 845 km, 98.7° (Epoch: 04 August)

Event Time Altitude Azimuth Distance (km) Brightness Sun altitude
Rises 02:19:17 0° 12° (NNE) 3,346 6.9 -15.7°
Reaches altitude 10° 02:21:37 10° 11° (N) 2,417 5.8 -15.5°
Maximum altitude 02:26:57 73° 288° (WNW) 864 2.2 -15.1°
Enters shadow 02:30:27 22° 207° (SSW) 1,721 3.2 -14.8°
